User: anonymous   Login
Location: Blue Mountain Vista Observatory
(40.6992°N, 75.9422°W)
Time: 14:04:00
(UTC-05:00)
Language:

CZ-4C R/B - Orbit

View from above orbital plane
View from above orbital plane
View from above satellite
View from above satellite

Ground track
Ground track

The orbit data is extracted from the following two-line orbital elements,

1 36416U 10009D   17056.85254348 -.00000096 +00000-0 -45646-8 0  9998
2 36416 063.4392 202.6477 0376239 356.6025 003.2467 13.69512025348960
Epoch (UTC): 25 February 2017 20:27:39
Eccentricity: 0.0376239
inclination: 63.4392°
perigee height: 723 km
apogee height: 1279 km
right ascension of ascending node: 202.6477°
argument of perigee: 356.6025°
revolutions per day: 13.69512025
mean anomaly at epoch: 3.2467°
orbit number at epoch: 34896

The dashed part of the orbit path shows where the satellite is in the earth's shadow,  

DLR